Overview Statistics Trail Chart Weather Telemetry Raw packets
 

This is the latest recevied weather packets stored in our database for station/object KD0MAC. If no packets are shown the sender has not sent any weather packets the latest 10 day(s).

<< 88 89 90 91 92 93 94 >>
Time Temp. Humidity Pressure Rain* Wind** Luminosity Snow
1788107829 25° C 69% 1012.9 hPa 0 mm - 174 W/m² -
1788107530 25° C 66% 1012.9 hPa 0 mm - 142 W/m² -
1788107232 25.56° C 66% 1013.2 hPa 0 mm - 186 W/m² -
1788106930 25° C 67% 1012.9 hPa 0 mm - 134 W/m² -
1788106632 25.56° C 66% 1012.9 hPa 0 mm - 132 W/m² -
1788106331 25° C 67% 1012.9 hPa 0 mm - 147 W/m² -
1788106031 25° C 67% 1012.5 hPa 0 mm - 164 W/m² -
1788105729 25° C 68% 1011.5 hPa 0 mm - 168 W/m² -
1788105430 25° C 69% 1012.5 hPa 0 mm - 179 W/m² -
1788104840 24.44° C 69% 1012.2 hPa 0 mm - 169 W/m² -
1788104533 25° C 67% 1012.2 hPa 0 mm - 104 W/m² -
1788104230 25° C 66% 1012.2 hPa 0 mm - 107 W/m² -
1788103930 25° C 66% 1012.5 hPa 0 mm - 144 W/m² -
1788103630 25° C 66% 1012.5 hPa 0 mm - 138 W/m² -
1788103329 25° C 67% 1012.5 hPa 0 mm - 154 W/m² -
1788103030 25° C 68% 1012.2 hPa 0 mm - 125 W/m² -
1788102729 25° C 68% 1012.2 hPa 0 mm - 133 W/m² -
1788102429 25° C 68% 1011.9 hPa 0 mm - 126 W/m² -
1788102129 24.44° C 70% 1012.2 hPa 0 mm - 148 W/m² -
1788101830 24.44° C 71% 1012.2 hPa 0 mm - 135 W/m² -
1788101530 24.44° C 69% 1012.2 hPa 0 mm - 115 W/m² -
1788101229 25° C 68% 1012.2 hPa 0 mm - 129 W/m² -
1788100930 25° C 70% 1011.9 hPa 0 mm - 97 W/m² -
1788100355 24.44° C 70% 1011.5 hPa 0 mm - 118 W/m² -
1788100029 23.89° C 71% 1011.5 hPa 0 mm - 96 W/m² -

* Rain latest hour (hover to see other rain measurements)
** Current wind speed in m/s (hover to see current wind gust speed)